| time (UTC) | temp F | wind direction | speed MPH | gust MPH | rain 1hr in | rain 24hr in | rain mn in | humidity % | barometer mb |
| 20260903151530 | 46 | 85 | 4.0 | 7.0 | 0.01 | 0.16 | 0.00 | 100 | 1012.5 |
| 20260903150146 | 46 | 155 | 3.0 | 6.0 | 0.00 | 0.15 | 0.00 | 100 | 1012.3 |
| 20260903144530 | 45 | 174 | 1.0 | 5.0 | 0.00 | 0.15 | 0.00 | 100 | 1012.2 |
| 20260903143031 | 44 | 67 | 0.0 | 0.0 | 0.00 | 0.15 | 0.00 | 100 | 1012.2 |
| 20260903140106 | 42 | 189 | 0.0 | 3.0 | 0.00 | 0.15 | 0.00 | 100 | 1011.9 |
| 20260903134528 | 42 | 249 | 1.0 | 4.0 | 0.00 | 0.15 | 0.00 | 100 | 1011.8 |
| 20260903131529 | 42 | 292 | 0.0 | 0.0 | 0.00 | 0.15 | 0.00 | 100 | 1011.6 |
| 20260903130029 | 42 | 292 | 0.0 | 0.0 | 0.00 | 0.15 | 0.00 | 100 | 1011.4 |
| 20260903123031 | 42 | 219 | 0.0 | 1.0 | 0.00 | 0.15 | 0.00 | 99 | 1011.6 |
| 20260903121529 | 42 | 157 | 0.0 | 0.0 | 0.00 | 0.15 | 0.00 | 99 | 1011.6 |
| 20260903120030 | 42 | 157 | 0.0 | 0.0 | 0.00 | 0.15 | 0.00 | 99 | 1011.7 |
| 20260903114606 | 42 | 157 | 0.0 | 2.0 | 0.00 | 0.15 | 0.00 | 99 | 1011.7 |
| 20260903113030 | 42 | 157 | 0.0 | 2.0 | 0.00 | 0.15 | 0.00 | 99 | 1011.6 |
| 20260903111532 | 42 | 157 | 0.0 | 0.0 | 0.00 | 0.15 | 0.00 | 99 | 1011.5 |
| 20260903110104 | 43 | 164 | 0.0 | 3.0 | 0.00 | 0.15 | 0.00 | 99 | 1011.4 |
| 20260903104531 | 44 | 180 | 0.0 | 2.0 | 0.00 | 0.15 | 0.00 | 99 | 1011.4 |
| 20260903101604 | 45 | 156 | 1.0 | 3.0 | 0.00 | 0.15 | 0.00 | 99 | 1011.2 |
| 20260903100032 | 46 | 270 | 0.0 | 0.0 | 0.00 | 0.15 | 0.00 | 99 | 1011.3 |
| 20260903094532 | 46 | 270 | 0.0 | 0.0 | 0.00 | 0.15 | 0.00 | 99 | 1011.3 |
| 20260903093031 | 46 | 219 | 0.0 | 3.0 | 0.00 | 0.15 | 0.00 | 99 | 1011.3 |
| 20260903091529 | 47 | 219 | 0.0 | 2.0 | 0.00 | 0.15 | 0.00 | 99 | 1011.3 |
| 20260903090106 | 46 | 225 | 0.0 | 0.0 | 0.00 | 0.15 | 0.00 | 99 | 1011.4 |
| 20260903084529 | 46 | 225 | 0.0 | 0.0 | 0.00 | 0.15 | 0.00 | 99 | 1011.4 |
| 20260903083030 | 46 | 210 | 1.0 | 3.0 | 0.00 | 0.15 | 0.00 | 99 | 1011.3 |
| 20260903081530 | 46 | 202 | 0.0 | 0.0 | 0.00 | 0.15 | 0.00 | 99 | 1011.2 |
| 20260903080035 | 0 | 0 | 0.0 | 0.0 | 0.00 | 0.15 | 0.00 | 100 | |
| 20260903074605 | 45 | 202 | 0.0 | 0.0 | 0.00 | 0.15 | 0.00 | 98 | 1011.0 |
| 20260903073030 | 45 | 202 | 0.0 | 0.0 | 0.00 | 0.15 | 0.00 | 98 | 1010.7 |
| 20260903063106 | 46 | 206 | 2.0 | 4.0 | 0.00 | 0.15 | 0.15 | 98 | 1010.8 |
| 20260903061530 | 46 | 177 | 1.0 | 4.0 | 0.00 | 0.15 | 0.15 | 98 | 1011.0 |
| 20260903060144 | 47 | 204 | 0.0 | 3.0 | 0.00 | 0.15 | 0.15 | 97 | 1011.0 |
| 20260903054531 | 47 | 163 | 2.0 | 5.0 | 0.00 | 0.15 | 0.15 | 97 | 1011.0 |
| 20260903053105 | 48 | 68 | 0.0 | 3.0 | 0.00 | 0.15 | 0.15 | 97 | 1011.0 |
| 20260903050106 | 50 | 106 | 3.0 | 5.0 | 0.00 | 0.15 | 0.15 | 96 | 1010.7 |
| 20260903044530 | 50 | 170 | 4.0 | 8.0 | 0.00 | 0.15 | 0.15 | 96 | 1010.5 |
| 20260903041526 | 51 | 168 | 6.0 | 8.0 | 0.01 | 0.15 | 0.15 | 97 | 1010.2 |
| 20260903040105 | 51 | 173 | 5.0 | 10.0 | 0.01 | 0.15 | 0.15 | 97 | 1010.0 |
| 20260903034530 | 51 | 177 | 6.0 | 9.0 | 0.03 | 0.15 | 0.14 | 97 | 1010.0 |
| 20260903033031 | 52 | 180 | 6.0 | 9.0 | 0.05 | 0.14 | 0.14 | 97 | 1009.9 |
| 20260903031531 | 53 | 179 | 5.0 | 9.0 | 0.08 | 0.14 | 0.14 | 97 | 1009.9 |
| 20260903030031 | 54 | 172 | 5.0 | 9.0 | 0.11 | 0.14 | 0.12 | 98 | 1009.6 |
| 20260903024531 | 54 | 158 | 5.0 | 8.0 | 0.10 | 0.12 | 0.09 | 98 | 1009.6 |
| 20260903020106 | 56 | 244 | 3.0 | 7.0 | 0.02 | 0.03 | 0.02 | 98 | 1009.2 |
| 20260903014645 | 56 | 354 | 0.0 | 3.0 | 0.01 | 0.02 | 0.02 | 98 | 1008.8 |
| 20260903013027 | 55 | 22 | 0.0 | 3.0 | 0.02 | 0.02 | 0.02 | 98 | 1008.9 |
| 20260903011532 | 56 | 22 | 1.0 | 4.0 | 0.02 | 0.02 | 0.01 | 97 | 1009.0 |
| 20260903004527 | 56 | 290 | 3.0 | 7.0 | 0.01 | 0.01 | 0.00 | 97 | 1009.1 |
| 20260903001529 | 56 | 299 | 1.0 | 4.0 | 0.00 | 0.00 | 0.00 | 97 | 1009.1 |
| 20260903000147 | 56 | 14 | 3.0 | 6.0 | 0.00 | 0.00 | 0.00 | 97 | 1009.0 |
| 20260902234533 | 56 | 22 | 3.0 | 5.0 | 0.00 | 0.00 | 0.00 | 97 | 1009.0 |
| 20260902233031 | 56 | 344 | 2.0 | 4.0 | 0.00 | 0.00 | 0.00 | 97 | 1009.1 |
| 20260902231530 | 56 | 302 | 3.0 | 5.0 | 0.00 | 0.00 | 0.00 | 96 | 1009.3 |
| 20260902230107 | 56 | 285 | 2.0 | 4.0 | 0.00 | 0.00 | 0.00 | 96 | 1009.3 |
| 20260902224532 | 56 | 297 | 3.0 | 7.0 | 0.00 | 0.00 | 0.00 | 96 | 1009.1 |
| 20260902223030 | 56 | 300 | 2.0 | 5.0 | 0.00 | 0.00 | 0.00 | 95 | 1009.2 |
| 20260902221604 | 56 | 281 | 3.0 | 5.0 | 0.00 | 0.00 | 0.00 | 95 | 1009.1 |
| 20260902220031 | 56 | 272 | 2.0 | 7.0 | 0.00 | 0.00 | 0.00 | 94 | 1009.0 |
| 20260902214533 | 56 | 286 | 4.0 | 7.0 | 0.00 | 0.00 | 0.00 | 93 | 1008.9 |
| 20260902213105 | 56 | 257 | 3.0 | 5.0 | 0.00 | 0.00 | 0.00 | 93 | 1008.9 |
| 20260902211530 | 56 | 351 | 2.0 | 7.0 | 0.00 | 0.00 | 0.00 | 93 | 1008.9 |
| 20260902210104 | 56 | 14 | 4.0 | 7.0 | 0.00 | 0.00 | 0.00 | 92 | 1009.0 |
| 20260902204529 | 56 | 28 | 4.0 | 7.0 | 0.00 | 0.00 | 0.00 | 90 | 1009.1 |
| 20260902203032 | 57 | 13 | 4.0 | 8.0 | 0.00 | 0.00 | 0.00 | 86 | 1009.2 |
| 20260902201530 | 58 | 329 | 2.0 | 8.0 | 0.00 | 0.00 | 0.00 | 83 | 1009.3 |
| 20260902194530 | 59 | 11 | 6.0 | 8.0 | 0.00 | 0.00 | 0.00 | 79 | 1009.1 |
| 20260902193103 | 60 | 273 | 2.0 | 7.0 | 0.00 | 0.00 | 0.00 | 74 | 1009.1 |
| 20260902191528 | 60 | 249 | 2.0 | 6.0 | 0.00 | 0.00 | 0.00 | 73 | 1009.1 |
| 20260902190030 | 61 | 238 | 2.0 | 5.0 | 0.00 | 0.00 | 0.00 | 70 | 1009.1 |
| 20260902183031 | 61 | 278 | 2.0 | 5.0 | 0.00 | 0.00 | 0.00 | 70 | 1009.1 |
| 20260902181527 | 60 | 294 | 4.0 | 7.0 | 0.00 | 0.00 | 0.00 | 72 | 1009.0 |
| 20260902180030 | 60 | 285 | 4.0 | 8.0 | 0.00 | 0.00 | 0.00 | 72 | 1009.1 |
| 20260902174531 | 60 | 273 | 4.0 | 9.0 | 0.00 | 0.00 | 0.00 | 72 | 1009.1 |
| 20260902171529 | 60 | 292 | 4.0 | 9.0 | 0.00 | 0.00 | 0.00 | 72 | 1009.2 |
| 20260902170145 | 60 | 300 | 5.0 | 8.0 | 0.00 | 0.00 | 0.00 | 72 | 1009.4 |
| 20260902164720 | 0 | 0 | 0.0 | 0.0 | 0.00 | 0.00 | 0.00 | 100 | |
| 20260902161602 | 57 | 360 | 4.0 | 7.0 | 0.00 | 0.00 | 0.00 | 79 | 1010.0 |
| 20260902160029 | 57 | 351 | 4.0 | 9.0 | 0.00 | 0.00 | 0.00 | 80 | 1010.1 |
| 20260902154529 | 56 | 352 | 6.0 | 10.0 | 0.00 | 0.00 | 0.00 | 80 | 1010.2 |
| 20260902153029 | 56 | 5 | 6.0 | 11.0 | 0.00 | 0.00 | 0.00 | 80 | 1010.3 |